Regional Weather Roundup
Issued by NWS

Home | Current Version | Previous Version | Graphics & Text | Print | Product List | Glossary On
Versions: 1 2 3 4 5 6 7 8 9 10 11 12 13 14 15 16 17 18 19 20 21 22 23 24 25 26 27 28
000
ASUS45 KTFX 020410
RWRMT
MONTANA REGIONAL WEATHER ROUNDUP
NATIONAL WEATHER SERVICE GREAT FALLS MT
1000 PM MDT SUN MAY 01 2016

NOTE: "FAIR" INDICATES FEW OR NO CLOUDS BELOW 12000 FEET WITH NO
SIGNIFICANT WEATHER AND/OR OBSTRUCTIONS TO VISIBILITY.

MTZ001>007-043-020500-
WEST OF THE DIVIDE

CITY           SKY/WX    TMP DP  RH WIND       PRES   REMARKS
KALISPELL      CLEAR     50  39  66 CALM      30.11R
MISSOULA       CLEAR     58  38  47 NW8       30.13R
BUTTE          CLEAR     48  26  42 SE6       30.21R
MULLAN PASS    CLEAR     47  29  49 SE7       30.19R
ANACONDA         N/A     46  30  53 CALM      30.19R
DEER LODGE       N/A     52  34  50 N5        30.20R
EUREKA           N/A     54  37  54 CALM      30.11R
HAMILTON         N/A     52  37  58 CALM      30.12R
LIBBY            N/A     55  41  58 S5        30.11R
PLAINS           N/A     53  39  59 CALM      30.12R
$$

MTZ008-052>055-020500-
SOUTHWEST MONTANA

CITY           SKY/WX    TMP DP  RH WIND       PRES   REMARKS
BOZEMAN        CLEAR     48  29  47 SE9       30.18R
DILLON         CLEAR     48  27  44 E12       30.16R
ENNIS          CLEAR     46  30  53 N12       30.23R
TWIN BRIDGES     N/A     51  24  35 N10       30.13R
$$

MTZ009-010-012-014-046-048-049-054-020500-
EAST SLOPES AND CENTRAL MONTANA

CITY           SKY/WX    TMP DP  RH WIND       PRES   REMARKS
CUT BANK       CLEAR     51  33  50 SE3       30.19R
GREAT FALLS    CLEAR     46  33  60 NE7       30.18S
MALMSTROM AFB  CLEAR     52  33  48 NE6       30.19R
HELENA         CLEAR     52  34  50 W7        30.17R
CHOTEAU          N/A     54  32  43 SE5       30.20S
CONRAD           N/A     43  35  73 E3        30.20S
$$

MTZ011-013-016-021-045-047-050-051-020500-
NORTH CENTRAL MONTANA

CITY           SKY/WX    TMP DP  RH WIND       PRES   REMARKS
HAVRE          PTCLDY    47  38  71 CALM      30.17R
LEWISTOWN      CLOUDY    46  33  60 E7        30.21R
N BAR RANCH      N/A     39  30  70 NW3       30.25R
CHINOOK          N/A     52  39  62 CALM      30.18R
$$

MTZ017>020-022>027-061-062-020500-
NORTHEAST MONTANA

CITY           SKY/WX    TMP DP  RH WIND       PRES   REMARKS
GLASGOW        PTCLDY    54  34  46 W7        30.16F
JORDAN           N/A     46  37  71 CALM      30.18F
SIDNEY         CLEAR     52  30  43 W7        30.15S
WOLF POINT     PTCLDY    50  37  61 W3        30.16R
PLENTYWOOD       N/A     57  32  38 W5        30.10F
POPLAR           N/A     54  36  50 SW5       30.15S
SCOBEY           N/A     52  31  44 W6        30.12S
$$

MTZ028>42-056>058-020500-
SOUTHCENTRAL AND SOUTHEAST MONTANA

CITY           SKY/WX    TMP DP  RH WIND       PRES   REMARKS
BAKER          CLEAR     47  32  56 SW8       30.20S
BILLINGS       PTCLDY    54  30  40 SE5       30.22R
LIVINGSTON     CLEAR     45  30  55 SE7       30.20R
MILES CITY     CLEAR     49  35  58 SW7       30.19S
EKALAKA          N/A     45  29  53 SE3       30.18S
FORSYTH          N/A     48  34  57 SE5       30.21R
LAUREL           N/A     47  26  44 MISG      30.19R
ROUNDUP          N/A     51  32  48 CALM      30.11S
$$

REGIONAL REPORTS...DAKOTAS

CITY           SKY/WX    TMP DP  RH WIND       PRES   REMARKS
WILLISTON      CLEAR     52  32  46 SW8       30.12S
MINOT          CLEAR     54  27  35 S6        30.10F
DICKINSON      CLEAR     45  28  51 NW7       30.15F
BEACH            N/A     41  32  70 S3        30.21S
CROSBY         CLOUDY    52  30  43 SW10      30.10F
TIOGA          MOCLDY    46  30  53 SW12      30.15F
WATFORD CITY     N/A     45  32  61 SW6       30.14S
BISMARCK       CLEAR     44  33  65 CALM      30.15F
GRAND FORKS    PTCLDY    52  29  41 SE5       30.12S
FARGO          CLEAR     49  26  41 CALM      30.13S
BUFFALO SD       N/A     49  30  48 NW8       30.15R
RAPID CITY     CLEAR     38  29  70 W3        30.24R
$$

REGIONAL REPORTS...WYOMING/IDAHO/WASHINGTON

CITY           SKY/WX    TMP DP  RH WIND       PRES   REMARKS
GILLETTE       CLEAR     33  30  88 S3        30.25R
SHERIDAN       CLEAR     41  33  73 SW5       30.23R
BUFFALO WY       N/A    N/A N/A N/A MISG      30.26R
CODY           CLEAR     45  25  45 S3        30.24R
YELLOWSTONE LA   N/A     28  18  66 CALM      30.28R
IDAHO FALLS    CLEAR     49  23  36 NE5       30.11R
SALMON         CLEAR     52  30  43 SE5       30.10R
BOISE          CLEAR     64  33  31 S9        30.05R
SPOKANE        PTCLDY    63  37  38 N5        30.06R
$$

REGIONAL REPORTS...ALBERTA

CITY           SKY/WX    TMP DP  RH WIND       PRES   REMARKS
EDMONTON       PTCLDY    61  37  41 W6        30.06R
CALGARY        PTCLDY    57  28  33 VRB2      30.15S
LETHBRIDGE     PTCLDY    48  36  61 S16       30.14R
MEDICINE HAT   CLEAR     52  39  62 SW6       30.13S
CARDSTON         N/A     50  34  53 SW3         N/A
MILK RIVER       N/A     46  36  66 S3          N/A
ONEFOUR          N/A     52  34  50 S2          N/A
$$

REGIONAL REPORTS...SASKATCHEWAN

CITY           SKY/WX    TMP DP  RH WIND       PRES   REMARKS
SWIFT CURRENT  PTCLDY    52  36  54 SW10      30.11S
REGINA         MOCLDY    50  32  50 W10       30.06F
SASKATOON      MOCLDY    54  36  50 SW8       30.04S
CYPRESS HILLS    N/A     46  34  61 W2          N/A
VAL MARIE        N/A     46  36  66 SW5         N/A
ROCKGLEN         N/A     48  32  53 W10         N/A
ASSINIBOIA       N/A     55  34  44 SW6         N/A
$$




USA.gov is the U.S. government's official web portal to all federal, state and local government web resources and services.